Regional Weather Roundup
Issued by NWS

Home | Current Version | Previous Version | Graphics & Text | Print | Product List | Glossary On
Versions: 1 2 3 4 5 6 7 8 9 10 11 12 13 14 15 16 17 18 19 20 21 22 23 24 25 26 27 28
000
ASUS45 KTFX 221610
RWRMT
MONTANA REGIONAL WEATHER ROUNDUP
NATIONAL WEATHER SERVICE GREAT FALLS MT
900 AM MST WED NOV 22 2017

NOTE: "FAIR" INDICATES FEW OR NO CLOUDS BELOW 12000 FEET WITH NO
SIGNIFICANT WEATHER AND/OR OBSTRUCTIONS TO VISIBILITY.

MTZ001>007-043-221700-
WEST OF THE DIVIDE

CITY           SKY/WX    TMP DP  RH WIND       PRES   REMARKS
KALISPELL      CLOUDY    41  41 100 CALM      30.12R
MISSOULA       CLOUDY    38  38 100 CALM      30.21R FOG
BUTTE          CLOUDY    49  37  63 VRB3      30.26R
MULLAN PASS    LGT RAIN  42  41  96 SW8G22    30.19R VSB 1/4
ANACONDA         N/A     48  39  71 S6        30.23R
DEER LODGE       N/A     43  39  87 CALM      30.23R
EUREKA           N/A     43  41  93 MISG      30.09R
HAMILTON         N/A     52  45  76 S17       30.22R
LIBBY            N/A     37  37 100 CALM      30.12R
PLAINS           N/A     41  39  92 CALM      30.15R
RONAN            N/A     52  46  79 SE6       30.17R
$$

MTZ008-052>055-221700-
SOUTHWEST MONTANA

CITY           SKY/WX    TMP DP  RH WIND       PRES   REMARKS
BOZEMAN        CLOUDY    42  34  73 E7        30.20R
DILLON         FAIR      45  35  68 S12       30.27R
W YELLOWSTONE  CLOUDY    37  37 100 S13       30.36S FOG     WCI  29
ENNIS          CLOUDY    46  37  71 S16G23    30.30S
TWIN BRIDGES     N/A     47  34  60 SE1       30.22R
$$

MTZ009-010-012-014-046-048-049-054-221700-
EAST SLOPES AND CENTRAL MONTANA

CITY           SKY/WX    TMP DP  RH WIND       PRES   REMARKS
CUT BANK       FAIR      52  42  69 W29G38    29.94R
GREAT FALLS    FAIR      56  40  55 SW23G33   30.01R
MALMSTROM AFB  MOCLDY    56  41  56 SW25G36   30.01R
HELENA         FAIR      40  35  83 SW6       30.15R
BOWMANS CRNR   FAIR      51  39  63 SW17      30.03S
CHOTEAU          N/A     59  37  44 W24       29.98F
FAIRFIELD      FAIR      58  38  46 SW16G30   30.01R
POWER          FAIR      54  38  55 SW15G22   29.99R
RAYNESFORD     PTSUNNY   58  39  48 SW22G33   30.03R
ULM            MOCLDY    57  41  55 S13       30.05R
$$

MTZ011-013-016-021-045-047-050-051-221700-
NORTH CENTRAL MONTANA

CITY           SKY/WX    TMP DP  RH WIND       PRES   REMARKS
HAVRE          MOCLDY    52  41  66 SW20      29.91R
LEWISTOWN      FAIR      55  40  56 SW18      30.03R
N BAR RANCH    CLOUDY    52  43  71 W15       30.04F
CHINOOK          N/A     54  41  62 W14       29.88R
DENTON         PTSUNNY   55  41  58 W22       29.94R
GEYSER         PTSUNNY   55  40  56 W24G37    29.98S
GRASS RANGE    PTSUNNY   56  40  55 SW20G26   29.97R
STANFORD       PTSUNNY   57  38  49 W29G37    30.01R
WINIFRED       PTSUNNY   54  41  61 W10       29.99R
$$

MTZ017>020-022>027-061-062-221700-
NORTHEAST MONTANA

CITY           SKY/WX    TMP DP  RH WIND       PRES   REMARKS
GLASGOW        FAIR      33  28  81 CALM      29.86R
GLENDIVE       FAIR      36  29  75 SE10      29.89R WCI  28
JORDAN           N/A     55  39  54 W16       29.89R
SIDNEY         FAIR      36  28  73 S7        29.85R WCI  30
WOLF POINT     FAIR      25  16  68 CALM      29.86R
MALTA          SUNNY     54  39  58 NW25      29.84R
PLENTYWOOD       N/A     25  19  80 CALM      29.81R
POPLAR           N/A     27  18  69 CALM      29.85R
SCOBEY           N/A     33  20  59 SE1       29.82R
$$

MTZ028>42-056>058-221700-
SOUTHCENTRAL AND SOUTHEAST MONTANA

CITY           SKY/WX    TMP DP  RH WIND       PRES   REMARKS
BAKER          FAIR      50  36  58 W21       29.94R
BILLINGS       PTSUNNY   50  36  58 SW21      30.09R
LIVINGSTON     PTSUNNY   57  40  52 W24G36    30.14R
MILES CITY     PTSUNNY   38  32  79 SE3       29.95R
BIG TIMBER     MOSUNNY   55  37  50 W24       30.14R
EKALAKA          N/A     48  31  52 SW10      29.96R
FORSYTH          N/A     55  37  50 W10       29.99R
HARLOWTON      PTSUNNY   50  38  65 NW17      30.09R
LAUREL           N/A     50  36  57 SW15      30.12R
ROUNDUP          N/A     57  37  47 SW20      29.95R
$$

REGIONAL REPORTS...DAKOTAS

CITY           SKY/WX    TMP DP  RH WIND       PRES   REMARKS
WILLISTON      FAIR      31  21  66 CALM      29.84R
MINOT          CLOUDY    29  19  66 S8        29.81F WCI  21
DICKINSON      PTSUNNY   46  31  55 W16       29.84S
BEACH          FAIR      48  32  53 W23       29.91R
CROSBY         FAIR      30  21  69 SW16      29.78F WCI  19
TIOGA          FAIR      27  21  80 S5        29.81F
WATFORD CITY   FAIR      39  30  70 SW8       29.82R
BISMARCK       CLOUDY    32  19  58 S5        29.93F
GRAND FORKS    LGT SNOW  19  13  77 S16       30.06F WCI   4
FARGO          CLOUDY    20  11  68 S13       30.10F WCI   7
BUFFALO SD       N/A     43  28  55 W9        29.89F
RAPID CITY     FAIR      47  28  47 CALM      30.02S
$$

REGIONAL REPORTS...WYOMING/IDAHO/WASHINGTON

CITY           SKY/WX    TMP DP  RH WIND       PRES   REMARKS
GILLETTE       FAIR      56  34  43 SW15      30.09R
SHERIDAN       FAIR      52  41  66 N5        30.08R
BUFFALO WY     FAIR      59  31  34 S5        30.12R
CODY           FAIR      56  38  50 W12G23    30.22R
YELLOWSTONE LA   N/A     38  37  97 VRB3      30.39S
IDAHO FALLS    CLOUDY    39  38  96 N6        30.40R
SALMON         LGT RAIN  37  37 100 CALM      30.35R
BOISE          MOCLDY    51  49  92 CALM      30.30R
SPOKANE        CLOUDY    44  44 100 CALM      30.11R FOG
$$

REGIONAL REPORTS...ALBERTA

CITY           SKY/WX    TMP DP  RH WIND       PRES   REMARKS
EDMONTON       CLOUDY    16   9  73 SW7       29.87R WCI   6
CALGARY        PTCLDY    19  14  79 SW3       29.85R
LETHBRIDGE     MOCLDY    52  39  62 W30G40    29.88R
MEDICINE HAT   PTCLDY    25  19  80 NW8       29.92R WCI  16
$$

REGIONAL REPORTS...SASKATCHEWAN

CITY           SKY/WX    TMP DP  RH WIND       PRES   REMARKS
SWIFT CURRENT  MOCLDY    23  19  86 W15       29.82R WCI  10
REGINA         MOSUNNY   18  12  79 E5        29.83R
SASKATOON      CLOUDY    10   3  72 W3        29.92R
$$




USA.gov is the U.S. government's official web portal to all federal, state and local government web resources and services.